ONEWEB-0468, 51652

Orbit data source: Space-Track

ONEWEB-0468, 51652 is a payload satellite owned by One Web (NAA) (UK) in LEO that was launched on Thu, 10 Feb 2022 UTC via a SOYUZ-ST-B launch vehicle from the French Guiana (FRGUI). Payload-class satellites include a variety of spacecraft equipped with specific instruments for various scientific and technological missions. These include communications satellites like Starlink; space stations such as the ISS; scientific satellites like the Hubble; Earth observation satellites from companies like Planet Labs, Umbra, and HawkEye 360; GPS; miniature CubeSats for education and research; and military/defense satellites.

Loading next visibility...
Identifier
51652, 2022-012AG
Orbit
LEO
Country
Flag of UKUK
Related business
Manufacturer
One Web
Mission
Operational Commercial Communications
Bus & Motor
ARROW, Unknown motor
Mass
148 kg wet, ~140 kg dry
Launch date (UTC)
2022-02-10 (4 years ago)
Launch vehicle
SOYUZ-ST-B
Launch site
French Guiana (FRGUI)
Object type
Payload
Rocket body
Debris
Shape & HBR
Trap Box + 2 Pan, 6.7 m
Radar Cross Section
3.464 m², Large (>1 m²)

Expand to show TLE details & history
Last TLE update: 2 days ago

TLE from 2 days ago
0 ONEWEB-0468
1 51652U 22012AG  26171.32253654  .00000119  00000-0  30389-3 0  9990
2 51652  87.8823  35.6502 0001473  79.3667 280.7627 13.10515101209710
Epoch: 2026-06-20T07:44Z
TLE epoch observation values (Epoch: 2026-06-20T07:44:27.157Z)
Latitude
0.00007°
Longitude
10.99823°
Altitude
1,223.846 km
Speed
7.243 km/s
True Right ascension
02h 22m 36s
True Declination
0° 00' 00"
Sunlit
Object was in daylight at epoch
Visualization orbit readout
Latitude
Unknown
Longitude
Unknown
Altitude
Unknown
Speed
Unknown
Apparent Right ascension
Unknown
Apparent Declination
Unknown
Sunlit
N/A
Visualization observer readout
Local Sidereal Time
23:08:40
Azimuth
Unknown
Elevation
Unknown
Doppler factor
Unknown
Orbital elements
Apogee altitude
1,219.406 km
Perigee altitude
1,217.168 km
Semi-major axis
7,596.424 km
Eccentricity
0.00015
Inclination
87.8823°
RAAN
35.6502°
Arg. of periapsis
79.3667°
True anomaly
280.74612°
Mean anomaly
280.7627°
Eccentric anomaly
280.75441°
Mean motion
3.27815 °/min
Orbital period
109.82 mins
BSTAR
0.00030389
Loading maneuver chart data...
Computing Atmospheric mass density...
Loading historical data...
Loading historical data...
Loading historical data...
Loading historical data...
Loading historical data...
Loading historical data...
Loading historical data...

Documentation

Showing up to 5 results
|